TITAN 3C TRANSTAGE DEB, 4907

Orbit data source: Space-Track

TITAN 3C TRANSTAGE DEB, 4907 is space debris in LEO originally from a launch on Fri, 15 Oct 1965 UTC launched from the Air Force Eastern Test Range (AFETR). Debris objects in space refer to the collection of defunct objects orbiting the Earth. Examples of debris include non-operational satellites, rocket bodies, and fragments generated from explosions, collisions, or faulty payload assembly.

Loading next visibility...
Identifier
4907, 1965-082SV
Orbit
LEO
Country
Flag of USUS
Related business
Manufacturer
Unknown
Mission
Spacecraft
Bus & Motor
Unknown
Mass
Unknown
Launch date (UTC)
1965-10-15 (61 years ago)
Launch vehicle
Unknown
Launch site
Air Force Eastern Test Range (AFETR)
Object type
Payload
Rocket body
Debris
Shape & HBR
Unknown shape, 0.1 m
Radar Cross Section
Medium (>0.1 m² and <1 m²)

Expand to show TLE details & history
Last TLE update: 6 hours ago

TLE from 6 hours ago
0 TITAN 3C TRANSTAGE DEB
1  4907U 65082SV  26194.16113178  .00000248  00000-0  43318-4 0  9998
2  4907  32.4835 227.6767 0045845 167.1626 193.0201 14.60569700222021
Epoch: 2026-07-13T03:52Z
TLE epoch observation values (Epoch: 2026-07-13T03:52:01.785Z)
Latitude
-0.00002°
Longitude
-121.38039°
Altitude
721.597 km
Speed
7.48 km/s
True Right ascension
15h 10m 42s
True Declination
0° 00' 00"
Sunlit
Object was in daylight at epoch
Visualization orbit readout
Latitude
Unknown
Longitude
Unknown
Altitude
Unknown
Speed
Unknown
Apparent Right ascension
Unknown
Apparent Declination
Unknown
Sunlit
N/A
Visualization observer readout
Local Sidereal Time
21:46:55
Azimuth
Unknown
Elevation
Unknown
Doppler factor
Unknown
Orbital elements
Apogee altitude
727.302 km
Perigee altitude
662.449 km
Semi-major axis
7,073.012 km
Eccentricity
0.00458
Inclination
32.4835°
RAAN
227.6767°
Arg. of periapsis
167.1626°
True anomaly
192.9024°
Mean anomaly
193.0201°
Eccentric anomaly
192.96118°
Mean motion
3.64869 °/min
Orbital period
98.67 mins
BSTAR
0.000043318

Documentation

Showing up to 5 results
|